Location: Girdwood
(60.9430°N, 149.1660°W)
Time: 05:56:41
(UTC-08:00)

Iridium 86 - Visible Passes

Search period start: 30 August 2015 00:00
Search period end: 09 September 2015 00:00
Orbit: 776 x 779 km, 86.4° (Epoch: 29 August)

Date Brightness Start Highest point End Pass type
(mag) Time Alt. Az. Time Alt. Az. Time Alt. Az.
30 Aug 8.3 23:10:39 10° WSW 23:14:38 21° WNW 23:18:32 10° N visible
31 Aug 7.7 22:36:07 10° SW 22:40:40 29° WNW 22:45:14 10° N visible
01 Sep 9.1 05:33:54 10° NNE 05:35:26 11° NE 05:37:08 10° ENE visible
01 Sep 7.0 22:01:53 10° SW 22:06:50 42° WNW 22:11:49 10° N visible
01 Sep 8.8 23:46:53 10° WNW 23:49:11 12° NW 23:51:19 10° NNW visible
02 Sep 8.5 23:11:34 10° W 23:15:03 17° NW 23:18:25 10° NNW visible
03 Sep 8.6 06:06:23 10° NNE 06:10:02 19° NE 06:13:46 10° ESE visible
03 Sep 8.1 22:36:47 10° WSW 22:41:01 24° WNW 22:45:13 10° N visible
04 Sep 8.9 05:33:21 10° NNE 05:35:56 14° NE 05:38:39 10° E visible
04 Sep 7.5 22:02:22 10° SW 22:07:07 34° WNW 22:11:51 10° N visible
04 Sep 9.1 23:48:57 10° NW 23:49:42 10° NW 23:50:16 10° NW visible
05 Sep 6.7 21:28:16 10° SSW 21:33:19 49° WNW 21:38:24 10° N visible
05 Sep 8.7 23:12:40 10° W 23:15:30 14° NW 23:18:12 10° NNW visible
06 Sep 8.4 06:06:18 10° N 06:10:25 23° ENE 06:14:37 10° ESE visible
06 Sep 8.5 22:37:36 10° WSW 22:41:25 20° WNW 22:45:09 10° N visible
07 Sep 8.8 05:33:07 10° NNE 05:36:24 17° NE 05:39:48 10° E visible
07 Sep 8.0 22:02:58 10° WSW 22:07:26 27° WNW 22:11:52 10° N visible
08 Sep 9.1 05:00:17 10° NNE 05:02:15 12° NE 05:04:23 10° ENE visible
08 Sep 7.3 21:28:41 10° SW 21:33:35 39° WNW 21:38:29 10° N visible
08 Sep 9.0 23:14:05 10° WNW 23:16:00 12° NW 23:17:45 10° NNW visible
